User: anonymous
Location: Morehead State University
(38.1872°N, 83.4339°W)
Time: 14:18:20
(UTC-04:00)
Language:

Okean 2 - Orbit

View from above orbital plane
View from above orbital plane
View from above satellite
View from above satellite

Ground track
Ground track

The orbit data is extracted from the following two-line orbital elements,

1 20510U 90018A   14273.63798785  .00003069  00000-0  26902-3 0  8456
2 20510 082.5177 041.3476 0014498 085.2048 043.9011 14.96274645333148
Epoch (UTC): 30 September 2014 15:18:42
Eccentricity: 0.0014498
inclination: 82.5177°
perigee height: 568 km
apogee height: 588 km
right ascension of ascending node: 41.3476°
argument of perigee: 85.2048°
revolutions per day: 14.96274645
mean anomaly at epoch: 43.9011°
orbit number at epoch: 33314

The dashed part of the orbit path shows where the satellite is in the earth's shadow,  

DLR